START_TIME,STEP,MOV.,M15,t_acc.,M20,t_acc.
1979-07-13 09:00:44.240 ,0,0,0.,24.0,0.,24.0
1979-07-13 09:01:08.240 ,0,1,0.,24.0,0.,24.0
1979-07-13 09:01:32.240 ,0,0,0.,24.0,0.,24.0
1979-07-13 09:01:56.240 ,1,1,0.,24.0,0.,24.0
1979-07-13 09:02:20.240 ,1,0,0.,24.0,0.,24.0
1979-07-13 09:02:44.240 ,2,1,0.,24.0,0.,24.0
1979-07-13 09:03:08.240 ,2,0,0.,24.0,0.,24.0
1979-07-13 09:03:32.240 ,3,1,0.,24.0,0.,24.0
1979-07-13 09:03:56.240 ,3,0,0.,24.0,0.,24.0
1979-07-13 09:04:20.240 ,4,1,0.,24.0,0.,24.0
1979-07-13 09:04:44.240 ,4,0,1.,24.0,0.,24.0
1979-07-13 09:05:08.240 ,5,1,0.,24.0,0.,24.0
1979-07-13 09:05:32.240 ,5,0,0.,24.0,0.,24.0
1979-07-13 09:05:56.240 ,6,1,0.,24.0,0.,24.0
1979-07-13 09:06:20.240 ,6,0,0.,24.0,0.,24.0
1979-07-13 09:08:20.240 ,0,0,0.,24.0,0.,24.0
1979-07-13 09:08:44.240 ,7,1,1.,24.0,0.,24.0
1979-07-13 09:09:08.240 ,3,1,0.,24.0,0.,24.0
1979-07-13 09:09:32.240 ,0,1,0.,24.0,0.,24.0
1979-07-13 09:09:56.240 ,4,1,0.,24.0,0.,24.0
1979-07-13 09:10:20.240 ,7,1,0.,24.0,0.,24.0
1979-07-13 09:10:44.240 ,3,1,0.,24.0,0.,24.0
1979-07-13 09:10:44.240 ,3,1,0.,24.0,0.,24.0
1979-07-13 09:11:08.240 ,0,1,1.,24.0,0.,24.0
1979-07-13 09:11:32.240 ,4,1,0.,24.0,0.,24.0
1979-07-13 09:11:56.240 ,7,1,0.,24.0,0.,24.0
1979-07-13 09:12:20.240 ,3,1,0.,24.0,0.,24.0
1979-07-13 09:12:44.240 ,0,1,0.,24.0,0.,24.0
1979-07-13 09:13:08.240 ,4,1,0.,24.0,0.,24.0
1979-07-13 09:13:32.240 ,7,1,0.,24.0,0.,24.0
1979-07-13 09:13:56.240 ,3,1,0.,24.0,0.,24.0
1979-07-13 09:14:20.240 ,0,1,0.,24.0,0.,24.0
1979-07-13 09:14:44.240 ,4,1,0.,24.0,0.,24.0
1979-07-13 09:15:08.240 ,7,1,0.,24.0,0.,24.0
1979-07-13 09:15:32.240 ,3,1,0.,24.0,0.,24.0
1979-07-13 09:15:56.240 ,0,1,0.,24.0,0.,24.0
1979-07-13 09:16:20.240 ,4,1,0.,24.0,0.,24.0
1979-07-13 09:16:44.240 ,7,1,0.,24.0,0.,24.0
1979-07-13 09:17:08.240 ,3,1,0.,24.0,0.,24.0
1979-07-13 09:17:32.240 ,0,1,1.,24.0,0.,24.0
1979-07-13 09:17:56.240 ,0,0,0.,24.0,0.,24.0
1979-07-13 09:18:20.240 ,0,0,0.,24.0,0.,24.0
1979-07-13 09:18:44.240 ,5,1,0.,24.0,0.,24.0
1979-07-13 09:19:08.240 ,5,0,0.,24.0,0.,24.0
1979-07-13 09:19:32.240 ,4,1,0.,24.0,0.,24.0
1979-07-13 09:19:56.240 ,4,0,0.,24.0,0.,24.0
1979-07-13 09:20:20.240 ,3,1,0.,24.0,0.,24.0
1979-07-13 09:20:44.240 ,3,0,0.,24.0,0.,24.0
1979-07-13 09:21:08.240 ,2,1,0.,24.0,0.,24.0
1979-07-13 09:21:32.240 ,2,0,0.,24.0,0.,24.0
1979-07-13 09:21:56.240 ,1,1,0.,24.0,0.,24.0
1979-07-13 09:22:20.240 ,1,0,0.,24.0,0.,24.0
1979-07-13 09:22:44.240 ,0,1,0.,24.0,0.,24.0
1979-07-13 09:23:08.240 ,0,0,0.,24.0,0.,24.0
1979-07-13 09:23:32.240 ,0,1,0.,24.0,0.,24.0
1979-07-13 09:23:56.240 ,0,0,0.,24.0,0.,24.0
1979-07-13 09:24:20.240 ,1,1,0.,24.0,0.,24.0
1979-07-13 09:24:44.240 ,1,0,0.,24.0,0.,24.0
1979-07-13 09:25:08.240 ,2,1,0.,24.0,0.,24.0
1979-07-13 09:25:32.240 ,2,0,0.,24.0,0.,24.0
1979-07-13 09:25:56.240 ,3,1,0.,24.0,0.,24.0
1979-07-13 09:26:20.240 ,3,0,0.,24.0,0.,24.0
1979-07-13 09:26:44.240 ,4,1,0.,24.0,0.,24.0
1979-07-13 09:27:08.240 ,4,0,0.,24.0,0.,24.0
1979-07-13 09:27:32.240 ,5,1,0.,24.0,0.,24.0
1979-07-13 09:27:56.240 ,5,0,1.,24.0,0.,24.0
1979-07-13 09:28:20.240 ,6,1,0.,24.0,0.,24.0
1979-07-13 09:28:44.240 ,6,0,0.,24.0,0.,24.0
1979-07-13 09:29:08.240 ,7,1,0.,24.0,0.,24.0
1979-07-13 09:29:32.240 ,7,0,0.,24.0,0.,24.0
1979-07-13 09:29:56.240 ,7,1,0.,24.0,0.,24.0
1979-07-13 09:30:20.240 ,7,0,0.,24.0,0.,24.0
1979-07-13 09:30:44.240 ,6,1,0.,24.0,0.,24.0
1979-07-13 09:31:08.240 ,6,0,0.,24.0,0.,24.0
1979-07-13 09:31:32.240 ,5,1,0.,24.0,0.,24.0
1979-07-13 09:31:56.240 ,5,0,0.,24.0,0.,24.0
1979-07-13 09:32:20.240 ,4,1,0.,24.0,0.,24.0
1979-07-13 09:32:44.240 ,4,0,0.,24.0,0.,24.0
1979-07-13 09:33:08.240 ,3,1,0.,24.0,0.,24.0
1979-07-13 09:33:32.240 ,3,0,0.,24.0,0.,24.0
1979-07-13 09:33:56.240 ,2,1,0.,24.0,0.,24.0
1979-07-13 09:34:20.240 ,2,0,0.,24.0,0.,24.0
1979-07-13 09:34:44.240 ,1,1,0.,24.0,0.,24.0
1979-07-13 09:35:08.240 ,1,0,1.,24.0,0.,24.0
1979-07-13 09:35:32.240 ,0,1,0.,24.0,0.,24.0
1979-07-13 09:35:56.240 ,0,0,0.,24.0,0.,24.0
1979-07-13 09:36:20.240 ,0,1,0.,24.0,0.,24.0
1979-07-13 09:36:44.240 ,0,0,1.,24.0,0.,24.0
1979-07-13 09:37:08.240 ,1,1,0.,24.0,0.,24.0
1979-07-13 09:37:32.240 ,1,0,0.,24.0,0.,24.0
1979-07-13 09:37:56.240 ,2,1,0.,24.0,0.,24.0
1979-07-13 09:38:20.240 ,2,0,0.,24.0,0.,24.0
1979-07-13 09:38:44.240 ,3,1,0.,24.0,0.,24.0
1979-07-13 09:39:08.240 ,3,0,0.,24.0,0.,24.0
1979-07-13 09:39:32.240 ,4,1,0.,24.0,0.,24.0
1979-07-13 09:39:56.240 ,4,0,0.,24.0,0.,24.0
1979-07-13 09:40:20.240 ,5,1,0.,24.0,0.,24.0
1979-07-13 09:40:44.240 ,0,0,0.,24.0,0.,24.0
1979-07-13 09:41:56.240 ,0,0,0.,24.0,0.,24.0
1979-07-13 09:42:20.240 ,0,0,0.,24.0,0.,24.0
1979-07-13 09:42:44.240 ,7,1,0.,24.0,0.,24.0
1979-07-13 09:43:08.240 ,7,0,0.,24.0,0.,24.0
1979-07-13 09:43:32.240 ,6,1,0.,24.0,0.,24.0
1979-07-13 09:43:56.240 ,6,0,0.,24.0,0.,24.0
1979-07-13 09:44:20.240 ,5,1,0.,24.0,0.,24.0
1979-07-13 09:44:44.240 ,5,0,0.,24.0,0.,24.0
1979-07-13 09:45:08.240 ,4,1,0.,24.0,0.,24.0
1979-07-13 09:45:32.240 ,4,0,0.,24.0,0.,24.0
1979-07-13 09:45:56.230 ,3,1,0.,24.0,0.,24.0
1979-07-13 09:46:20.230 ,3,0,0.,24.0,0.,24.0
1979-07-13 09:46:44.230 ,2,1,0.,24.0,0.,24.0
1979-07-13 09:47:08.230 ,2,0,0.,24.0,0.,24.0
1979-07-13 09:47:32.230 ,1,1,0.,24.0,0.,24.0
1979-07-13 09:47:56.230 ,1,0,0.,24.0,0.,24.0
1979-07-13 09:48:20.230 ,0,1,0.,24.0,0.,24.0
1979-07-13 09:48:44.230 ,0,0,0.,24.0,0.,24.0
1979-07-13 09:49:08.230 ,0,1,0.,24.0,0.,24.0
1979-07-13 09:49:32.230 ,0,0,0.,24.0,0.,24.0
1979-07-13 09:49:56.230 ,1,1,0.,24.0,0.,24.0
1979-07-13 09:50:20.230 ,1,0,0.,24.0,0.,24.0
1979-07-13 09:50:44.230 ,2,1,0.,24.0,0.,24.0
1979-07-13 09:51:08.230 ,2,0,0.,24.0,0.,24.0
1979-07-13 09:51:32.230 ,3,1,0.,24.0,0.,24.0
1979-07-13 09:51:56.230 ,3,0,0.,24.0,0.,24.0
1979-07-13 09:52:20.230 ,4,1,1.,24.0,0.,24.0
1979-07-13 09:52:44.230 ,4,0,0.,24.0,0.,24.0
1979-07-13 09:53:08.230 ,5,1,0.,24.0,0.,24.0
1979-07-13 09:53:32.230 ,5,0,0.,24.0,0.,24.0
1979-07-13 09:53:56.230 ,6,1,0.,24.0,0.,24.0
1979-07-13 09:54:20.230 ,6,0,0.,24.0,0.,24.0
1979-07-13 09:54:44.230 ,7,0,1.,24.0,0.,24.0
1979-07-13 09:55:08.230 ,7,0,0.,24.0,0.,24.0
1979-07-13 09:55:32.230 ,3,1,0.,24.0,0.,24.0
1979-07-13 09:55:56.230 ,0,1,0.,24.0,0.,24.0
1979-07-13 09:56:20.230 ,4,1,0.,24.0,0.,24.0
1979-07-13 09:56:44.230 ,7,1,0.,24.0,0.,24.0
1979-07-13 09:57:08.230 ,3,1,0.,24.0,0.,24.0
1979-07-13 09:57:32.230 ,0,1,0.,24.0,0.,24.0
1979-07-13 09:57:56.230 ,4,1,0.,24.0,0.,24.0
1979-07-13 09:58:20.230 ,7,1,0.,24.0,0.,24.0
1979-07-13 09:58:44.230 ,3,1,0.,24.0,0.,24.0
1979-07-13 09:59:08.230 ,0,1,0.,24.0,0.,24.0
1979-07-13 09:59:32.230 ,4,1,0.,24.0,0.,24.0
1979-07-13 09:59:56.230 ,7,1,0.,24.0,0.,24.0
1979-07-13 10:00:20.230 ,3,1,0.,24.0,0.,24.0
1979-07-13 10:00:44.240 ,0,1,0.,24.0,0.,24.0
1979-07-13 10:01:08.240 ,4,1,0.,24.0,0.,24.0
1979-07-13 10:02:44.240 ,0,0,0.,24.0,0.,24.0
1979-07-13 10:03:08.240 ,7,1,0.,24.0,0.,24.0
1979-07-13 10:03:32.240 ,3,1,0.,24.0,0.,24.0
1979-07-13 10:03:56.240 ,0,1,0.,24.0,0.,24.0
1979-07-13 10:04:20.240 ,4,1,0.,24.0,0.,24.0
1979-07-13 10:04:44.240 ,7,1,0.,24.0,0.,24.0
1979-07-13 10:05:08.230 ,3,1,0.,24.0,0.,24.0
1979-07-13 10:05:32.240 ,0,1,0.,24.0,0.,24.0
1979-07-13 10:05:56.240 ,0,0,0.,24.0,0.,24.0
1979-07-13 10:06:20.240 ,0,0,1.,24.0,0.,24.0
1979-07-13 10:06:44.240 ,5,1,0.,24.0,0.,24.0
1979-07-13 10:07:08.230 ,5,0,0.,24.0,0.,24.0
1979-07-13 10:07:32.240 ,0,0,0.,24.0,0.,24.0
1979-07-13 10:07:56.240 ,0,0,0.,24.0,0.,24.0
1979-07-13 10:09:08.240 ,0,0,0.,24.0,0.,24.0
1979-07-13 10:09:32.240 ,0,0,0.,24.0,0.,24.0
1979-07-13 10:09:56.240 ,1,1,1.,24.0,0.,24.0
1979-07-13 10:10:20.240 ,1,0,0.,24.0,0.,24.0
1979-07-13 10:10:44.240 ,0,1,0.,24.0,0.,24.0
1979-07-13 10:11:08.240 ,0,0,1.,24.0,0.,24.0
1979-07-13 10:11:32.240 ,0,1,0.,24.0,0.,24.0
1979-07-13 10:11:56.240 ,0,0,0.,24.0,0.,24.0
1979-07-13 10:12:20.230 ,1,1,1.,24.0,0.,24.0
1979-07-13 10:12:44.230 ,1,0,0.,24.0,0.,24.0
1979-07-13 10:13:08.230 ,2,1,0.,24.0,0.,24.0
1979-07-13 10:13:32.230 ,2,0,0.,24.0,0.,24.0
1979-07-13 10:13:56.230 ,3,1,0.,24.0,0.,24.0
1979-07-13 10:14:20.230 ,3,0,1.,24.0,0.,24.0
1979-07-13 10:14:44.230 ,4,1,0.,24.0,0.,24.0
1979-07-13 10:15:08.230 ,4,0,1.,24.0,0.,24.0
1979-07-13 10:16:20.230 ,0,0,0.,24.0,0.,24.0
1979-07-13 10:16:44.230 ,0,0,0.,24.0,0.,24.0
1979-07-13 10:17:08.230 ,7,1,0.,24.0,0.,24.0
1979-07-13 10:17:32.230 ,7,0,0.,24.0,0.,24.0
1979-07-13 10:17:56.230 ,7,1,0.,24.0,0.,24.0
1979-07-13 10:18:20.230 ,7,0,0.,24.0,0.,24.0
1979-07-13 10:18:44.230 ,6,1,0.,24.0,0.,24.0
1979-07-13 10:19:08.230 ,6,0,0.,24.0,0.,24.0
1979-07-13 10:19:32.230 ,5,1,0.,24.0,0.,24.0
1979-07-13 10:19:56.230 ,5,0,0.,24.0,0.,24.0
1979-07-13 10:20:20.230 ,4,1,0.,24.0,0.,24.0
1979-07-13 10:20:44.230 ,4,0,0.,24.0,0.,24.0
1979-07-13 10:21:08.230 ,3,1,0.,24.0,0.,24.0
1979-07-13 10:21:32.230 ,3,0,0.,24.0,0.,24.0
1979-07-13 10:21:56.230 ,2,1,0.,24.0,0.,24.0
1979-07-13 10:22:20.230 ,2,0,0.,24.0,0.,24.0
1979-07-13 10:22:44.230 ,1,1,0.,24.0,0.,24.0
1979-07-13 10:23:08.230 ,1,0,0.,24.0,0.,24.0
1979-07-13 10:23:32.230 ,0,1,0.,24.0,0.,24.0
1979-07-13 10:23:56.230 ,0,0,0.,24.0,0.,24.0
1979-07-13 10:24:20.230 ,0,1,0.,24.0,0.,24.0
1979-07-13 10:24:44.230 ,0,0,0.,24.0,0.,24.0
1979-07-13 10:25:08.230 ,1,1,0.,24.0,0.,24.0
1979-07-13 10:25:32.230 ,1,0,0.,24.0,0.,24.0
1979-07-13 10:25:56.230 ,2,1,0.,24.0,0.,24.0
1979-07-13 10:26:20.230 ,2,0,0.,24.0,0.,24.0
1979-07-13 10:26:44.230 ,3,1,0.,24.0,0.,24.0
1979-07-13 10:27:08.230 ,3,0,0.,24.0,0.,24.0
1979-07-13 10:27:32.230 ,4,1,0.,24.0,0.,24.0
1979-07-13 10:27:56.230 ,4,0,0.,24.0,0.,24.0
1979-07-13 10:28:20.230 ,5,1,0.,24.0,0.,24.0
1979-07-13 10:28:44.230 ,5,0,0.,24.0,0.,24.0
1979-07-13 10:29:08.230 ,6,1,0.,24.0,0.,24.0
1979-07-13 10:29:32.230 ,6,0,0.,24.0,0.,24.0
1979-07-13 10:29:56.230 ,7,1,0.,24.0,0.,24.0
1979-07-13 10:30:20.230 ,7,0,0.,24.0,0.,24.0
1979-07-13 10:30:44.230 ,7,1,0.,24.0,0.,24.0
1979-07-13 10:31:08.230 ,7,0,0.,24.0,0.,24.0
1979-07-13 10:31:32.230 ,6,1,0.,24.0,0.,24.0
1979-07-13 10:31:56.230 ,6,0,0.,24.0,0.,24.0
1979-07-13 10:32:20.230 ,5,1,0.,24.0,0.,24.0
1979-07-13 10:32:44.230 ,5,0,0.,24.0,0.,24.0
1979-07-13 10:33:08.230 ,4,1,0.,24.0,0.,24.0
1979-07-13 10:33:32.230 ,4,0,0.,24.0,0.,24.0
1979-07-13 10:33:56.230 ,3,1,0.,24.0,0.,24.0
1979-07-13 10:34:20.230 ,3,0,0.,24.0,0.,24.0
1979-07-13 10:34:44.230 ,2,1,0.,24.0,0.,24.0
1979-07-13 10:35:08.230 ,2,0,0.,24.0,0.,24.0
1979-07-13 10:35:32.230 ,1,1,0.,24.0,0.,24.0
1979-07-13 10:35:56.230 ,1,0,0.,24.0,0.,24.0
1979-07-13 10:36:20.230 ,0,1,0.,24.0,0.,24.0
1979-07-13 10:36:44.230 ,0,0,0.,24.0,0.,24.0
1979-07-13 10:37:08.230 ,0,1,0.,24.0,0.,24.0
1979-07-13 10:37:32.230 ,0,0,0.,24.0,0.,24.0
1979-07-13 10:37:56.230 ,1,1,0.,24.0,0.,24.0
1979-07-13 10:38:20.230 ,1,0,0.,24.0,0.,24.0
1979-07-13 10:38:44.230 ,2,1,0.,24.0,0.,24.0
1979-07-13 10:39:08.230 ,2,0,0.,24.0,0.,24.0
1979-07-13 10:39:32.230 ,3,1,0.,24.0,0.,24.0
1979-07-13 10:39:56.230 ,3,0,0.,24.0,0.,24.0
1979-07-13 10:40:20.230 ,4,1,1.,24.0,0.,24.0
1979-07-13 10:40:44.230 ,4,0,0.,24.0,0.,24.0
1979-07-13 10:41:08.230 ,5,1,0.,24.0,0.,24.0
1979-07-13 10:41:32.230 ,5,0,0.,24.0,0.,24.0
1979-07-13 10:41:56.230 ,6,1,0.,24.0,0.,24.0
1979-07-13 10:42:20.230 ,6,0,0.,24.0,0.,24.0
1979-07-13 10:42:44.230 ,7,0,0.,24.0,0.,24.0
1979-07-13 10:43:08.230 ,7,0,0.,24.0,0.,24.0
1979-07-13 10:43:32.230 ,3,1,0.,24.0,0.,24.0
1979-07-13 10:43:56.230 ,0,1,0.,24.0,0.,24.0
1979-07-13 10:44:20.230 ,4,1,0.,24.0,0.,24.0
1979-07-13 10:44:44.230 ,7,1,0.,24.0,0.,24.0
1979-07-13 10:45:08.230 ,3,1,0.,24.0,0.,24.0
1979-07-13 10:45:32.230 ,0,1,0.,24.0,0.,24.0
1979-07-13 10:45:56.230 ,4,1,0.,24.0,0.,24.0
1979-07-13 10:46:20.230 ,7,1,2.,24.0,0.,24.0
1979-07-13 10:46:44.230 ,3,1,0.,24.0,0.,24.0
1979-07-13 10:47:08.230 ,0,1,0.,24.0,0.,24.0
1979-07-13 10:47:32.230 ,4,1,0.,24.0,0.,24.0
1979-07-13 10:47:56.230 ,7,1,0.,24.0,0.,24.0
1979-07-13 10:48:20.230 ,3,1,0.,24.0,0.,24.0
1979-07-13 10:48:44.230 ,0,1,0.,24.0,0.,24.0
1979-07-13 10:49:08.230 ,4,1,0.,24.0,0.,24.0
1979-07-13 10:49:32.230 ,7,1,0.,24.0,0.,24.0
1979-07-13 10:49:56.230 ,3,1,0.,24.0,0.,24.0
1979-07-13 10:50:20.230 ,0,1,0.,24.0,0.,24.0
1979-07-13 10:50:44.230 ,4,1,0.,24.0,0.,24.0
1979-07-13 10:51:08.230 ,7,1,0.,24.0,0.,24.0
1979-07-13 10:51:32.230 ,3,1,0.,24.0,0.,24.0
1979-07-13 10:51:56.230 ,0,1,0.,24.0,0.,24.0
1979-07-13 10:52:20.230 ,4,1,0.,24.0,0.,24.0
1979-07-13 10:52:44.230 ,7,1,0.,24.0,0.,24.0
1979-07-13 10:53:08.230 ,3,1,0.,24.0,0.,24.0
1979-07-13 10:53:32.230 ,0,1,0.,24.0,0.,24.0
1979-07-13 10:53:56.230 ,0,0,0.,24.0,0.,24.0
1979-07-13 10:54:20.230 ,0,0,0.,24.0,0.,24.0
1979-07-13 10:54:44.230 ,5,1,0.,24.0,0.,24.0
1979-07-13 10:55:08.230 ,5,0,0.,24.0,0.,24.0
1979-07-13 10:55:32.230 ,4,1,0.,24.0,0.,24.0
1979-07-13 10:55:56.230 ,4,0,0.,24.0,0.,24.0
1979-07-13 10:56:20.230 ,3,1,0.,24.0,0.,24.0
1979-07-13 10:56:44.230 ,3,0,1.,24.0,0.,24.0
1979-07-13 10:57:08.230 ,2,1,0.,24.0,0.,24.0
1979-07-13 10:57:32.230 ,2,0,0.,24.0,0.,24.0
1979-07-13 10:57:56.230 ,1,1,0.,24.0,0.,24.0
1979-07-13 10:58:20.230 ,1,0,0.,24.0,0.,24.0
1979-07-13 10:58:44.230 ,0,1,0.,24.0,0.,24.0
1979-07-13 10:59:08.230 ,0,0,0.,24.0,0.,24.0
1979-07-13 10:59:32.230 ,0,1,0.,24.0,0.,24.0
1979-07-13 10:59:56.230 ,0,0,0.,24.0,0.,24.0
1979-07-13 11:00:20.230 ,1,1,0.,24.0,0.,24.0
1979-07-13 11:00:44.230 ,1,0,0.,24.0,0.,24.0
1979-07-13 11:01:08.230 ,2,1,0.,24.0,0.,24.0
1979-07-13 11:01:32.230 ,2,0,0.,24.0,0.,24.0
1979-07-13 11:01:56.230 ,0,0,0.,24.0,0.,24.0
1979-07-13 11:02:20.230 ,0,0,0.,24.0,0.,24.0
1979-07-13 11:02:44.230 ,4,1,0.,24.0,0.,24.0
1979-07-13 11:03:08.230 ,4,0,0.,24.0,0.,24.0
1979-07-13 11:03:32.230 ,5,1,0.,24.0,0.,24.0
1979-07-13 11:03:56.230 ,5,0,0.,24.0,0.,24.0
1979-07-13 11:04:20.230 ,6,1,0.,24.0,0.,24.0
1979-07-13 11:04:44.230 ,6,0,0.,24.0,0.,24.0
1979-07-13 11:05:08.230 ,7,1,0.,24.0,0.,24.0
1979-07-13 11:05:32.230 ,7,0,0.,24.0,0.,24.0
1979-07-13 11:05:56.230 ,7,1,0.,24.0,0.,24.0
1979-07-13 11:06:20.230 ,7,0,0.,24.0,0.,24.0
1979-07-13 11:06:44.230 ,6,1,0.,24.0,0.,24.0
1979-07-13 11:07:08.230 ,6,0,0.,24.0,0.,24.0
1979-07-13 11:07:32.230 ,5,1,0.,24.0,0.,24.0
1979-07-13 11:07:56.230 ,5,0,0.,24.0,0.,24.0
1979-07-13 11:08:20.230 ,4,1,0.,24.0,0.,24.0
1979-07-13 11:08:44.230 ,4,0,0.,24.0,0.,24.0
1979-07-13 11:09:08.230 ,3,1,0.,24.0,0.,24.0
1979-07-13 11:09:32.230 ,3,0,0.,24.0,0.,24.0
1979-07-13 11:09:56.230 ,2,1,0.,24.0,0.,24.0
1979-07-13 11:10:20.230 ,2,0,0.,24.0,0.,24.0
1979-07-13 11:10:44.230 ,1,1,0.,24.0,0.,24.0
1979-07-13 11:11:08.230 ,1,0,0.,24.0,0.,24.0
1979-07-13 11:11:32.230 ,0,1,0.,24.0,0.,24.0
1979-07-13 11:11:56.230 ,0,0,0.,24.0,0.,24.0
1979-07-13 11:12:20.230 ,0,1,0.,24.0,0.,24.0
1979-07-13 11:12:44.230 ,0,0,0.,24.0,0.,24.0
1979-07-13 11:13:08.230 ,1,1,0.,24.0,0.,24.0
1979-07-13 11:13:32.230 ,1,0,0.,24.0,0.,24.0
1979-07-13 11:13:56.230 ,2,1,0.,24.0,0.,24.0
1979-07-13 11:14:20.230 ,2,0,0.,24.0,0.,24.0
1979-07-13 11:14:44.230 ,3,1,0.,24.0,0.,24.0
1979-07-13 11:15:08.230 ,3,0,0.,24.0,0.,24.0
1979-07-13 11:15:32.230 ,4,1,0.,24.0,0.,24.0
1979-07-13 11:15:56.230 ,4,0,0.,24.0,0.,24.0
1979-07-13 11:16:20.230 ,5,1,0.,24.0,0.,24.0
1979-07-13 11:16:44.230 ,5,0,0.,24.0,0.,24.0
1979-07-13 11:17:08.230 ,6,1,0.,24.0,0.,24.0
1979-07-13 11:17:32.230 ,6,0,0.,24.0,0.,24.0
1979-07-13 11:17:56.230 ,7,1,0.,24.0,0.,24.0
1979-07-13 11:18:20.230 ,7,0,0.,24.0,0.,24.0
1979-07-13 11:18:44.230 ,7,1,0.,24.0,0.,24.0
1979-07-13 11:19:08.230 ,7,0,1.,24.0,0.,24.0
1979-07-13 11:19:32.230 ,6,1,0.,24.0,0.,24.0
1979-07-13 11:19:56.230 ,6,0,0.,24.0,0.,24.0
1979-07-13 11:20:20.230 ,5,1,0.,24.0,0.,24.0
1979-07-13 11:20:44.230 ,5,0,0.,24.0,0.,24.0
1979-07-13 11:21:08.230 ,4,1,1.,24.0,0.,24.0
1979-07-13 11:21:32.230 ,4,0,0.,24.0,0.,24.0
1979-07-13 11:21:56.230 ,3,1,0.,24.0,0.,24.0
1979-07-13 11:22:20.230 ,3,0,0.,24.0,0.,24.0
1979-07-13 11:22:44.230 ,2,1,0.,24.0,0.,24.0
1979-07-13 11:23:08.230 ,2,0,0.,24.0,0.,24.0
1979-07-13 11:23:32.230 ,1,1,0.,24.0,0.,24.0
1979-07-13 11:23:56.230 ,1,0,0.,24.0,0.,24.0
1979-07-13 11:24:20.230 ,0,1,0.,24.0,0.,24.0
1979-07-13 11:24:44.230 ,0,0,0.,24.0,0.,24.0
1979-07-13 11:25:08.230 ,0,1,0.,24.0,0.,24.0
1979-07-13 11:25:32.230 ,0,0,0.,24.0,0.,24.0
1979-07-13 11:25:56.230 ,1,1,0.,24.0,0.,24.0
1979-07-13 11:26:20.230 ,1,0,0.,24.0,0.,24.0
1979-07-13 11:26:44.230 ,2,1,0.,24.0,0.,24.0
1979-07-13 11:27:08.230 ,2,0,0.,24.0,0.,24.0
1979-07-13 11:27:32.230 ,3,1,0.,24.0,0.,24.0
1979-07-13 11:27:56.230 ,3,0,0.,24.0,0.,24.0
1979-07-13 11:28:20.230 ,4,1,0.,24.0,0.,24.0
1979-07-13 11:28:44.230 ,4,0,0.,24.0,0.,24.0
1979-07-13 11:29:08.230 ,5,1,0.,24.0,0.,24.0
1979-07-13 11:29:32.230 ,5,0,0.,24.0,0.,24.0
1979-07-13 11:29:56.230 ,6,1,0.,24.0,0.,24.0
1979-07-13 11:30:20.230 ,6,0,0.,24.0,0.,24.0
1979-07-13 11:30:44.230 ,7,0,0.,24.0,0.,24.0
1979-07-13 11:31:08.230 ,7,0,0.,24.0,0.,24.0
1979-07-13 11:31:32.230 ,3,1,0.,24.0,0.,24.0
1979-07-13 11:31:56.230 ,0,1,0.,24.0,0.,24.0
1979-07-13 11:32:20.230 ,4,1,0.,24.0,0.,24.0
1979-07-13 11:32:44.230 ,7,1,0.,24.0,0.,24.0
1979-07-13 11:33:08.230 ,3,1,0.,24.0,0.,24.0
1979-07-13 11:33:32.230 ,0,1,0.,24.0,0.,24.0
1979-07-13 11:33:56.230 ,4,1,0.,24.0,0.,24.0
1979-07-13 11:34:20.230 ,7,1,0.,24.0,0.,24.0
1979-07-13 11:34:44.230 ,3,1,0.,24.0,0.,24.0
1979-07-13 11:35:08.230 ,0,1,0.,24.0,0.,24.0
1979-07-13 11:35:32.230 ,4,1,0.,24.0,0.,24.0
1979-07-13 11:35:56.230 ,7,1,1.,24.0,0.,24.0
1979-07-13 11:36:20.230 ,3,1,0.,24.0,0.,24.0
1979-07-13 11:36:44.230 ,0,1,0.,24.0,0.,24.0
1979-07-13 11:37:08.230 ,4,1,0.,24.0,0.,24.0
1979-07-13 11:37:32.230 ,7,1,0.,24.0,0.,24.0
1979-07-13 11:37:56.230 ,3,1,0.,24.0,0.,24.0
1979-07-13 11:38:20.230 ,0,1,0.,24.0,0.,24.0
1979-07-13 11:38:44.230 ,4,1,0.,24.0,0.,24.0
1979-07-13 11:39:08.230 ,7,1,0.,24.0,0.,24.0
1979-07-13 11:39:32.230 ,3,1,0.,24.0,0.,24.0
1979-07-13 11:39:56.230 ,0,1,0.,24.0,0.,24.0
1979-07-13 11:40:20.230 ,4,1,0.,24.0,0.,24.0
1979-07-13 11:40:44.230 ,7,1,0.,24.0,0.,24.0
1979-07-13 11:41:08.230 ,3,1,0.,24.0,0.,24.0
1979-07-13 11:41:32.230 ,0,1,1.,24.0,0.,24.0
1979-07-13 11:41:56.230 ,0,0,0.,24.0,0.,24.0
1979-07-13 11:42:20.230 ,0,0,0.,24.0,0.,24.0
1979-07-13 11:42:44.230 ,5,1,0.,24.0,0.,24.0
1979-07-13 11:43:08.230 ,5,0,0.,24.0,0.,24.0
1979-07-13 11:43:32.230 ,4,1,0.,24.0,0.,24.0
1979-07-13 11:43:56.230 ,4,0,0.,24.0,0.,24.0
1979-07-13 11:44:20.230 ,3,1,0.,24.0,0.,24.0
1979-07-13 11:44:44.230 ,3,0,0.,24.0,0.,24.0
1979-07-13 11:45:08.230 ,2,1,0.,24.0,0.,24.0
1979-07-13 11:45:32.230 ,2,0,0.,24.0,0.,24.0
1979-07-13 11:45:56.230 ,1,1,0.,24.0,0.,24.0
1979-07-13 11:46:20.230 ,1,0,0.,24.0,0.,24.0
1979-07-13 11:46:44.230 ,0,1,0.,24.0,0.,24.0
1979-07-13 11:47:08.230 ,0,0,0.,24.0,0.,24.0
1979-07-13 11:47:32.230 ,0,1,0.,24.0,0.,24.0
1979-07-13 11:47:56.230 ,0,0,0.,24.0,0.,24.0
1979-07-13 11:48:20.230 ,1,1,0.,24.0,0.,24.0
1979-07-13 11:48:44.230 ,1,0,0.,24.0,0.,24.0
1979-07-13 11:49:08.230 ,2,1,0.,24.0,0.,24.0
1979-07-13 11:49:32.230 ,2,0,0.,24.0,0.,24.0
1979-07-13 11:49:56.230 ,3,1,0.,24.0,0.,24.0
1979-07-13 11:50:20.230 ,3,0,0.,24.0,0.,24.0
1979-07-13 11:50:44.230 ,4,1,0.,24.0,0.,24.0
1979-07-13 11:51:08.230 ,4,0,0.,24.0,0.,24.0
1979-07-13 11:51:32.230 ,5,1,0.,24.0,0.,24.0
1979-07-13 11:51:56.230 ,5,0,0.,24.0,0.,24.0
1979-07-13 11:52:20.230 ,6,1,1.,24.0,0.,24.0
1979-07-13 11:52:44.230 ,6,0,0.,24.0,0.,24.0
1979-07-13 11:53:08.230 ,7,1,0.,24.0,0.,24.0
1979-07-13 11:53:32.230 ,7,0,0.,24.0,0.,24.0
1979-07-13 11:53:56.230 ,7,1,0.,24.0,0.,24.0
1979-07-13 11:54:20.230 ,7,0,0.,24.0,0.,24.0
1979-07-13 11:54:44.230 ,6,1,0.,24.0,0.,24.0
1979-07-13 11:55:08.230 ,6,0,0.,24.0,0.,24.0
1979-07-13 11:55:32.230 ,5,1,0.,24.0,0.,24.0
1979-07-13 11:55:56.230 ,5,0,0.,24.0,0.,24.0
1979-07-13 11:56:20.230 ,4,1,0.,24.0,0.,24.0
1979-07-13 11:56:44.230 ,4,0,0.,24.0,0.,24.0
1979-07-13 11:57:08.230 ,3,1,0.,24.0,0.,24.0
1979-07-13 11:57:32.230 ,3,0,0.,24.0,0.,24.0
1979-07-13 11:57:56.230 ,2,1,0.,24.0,0.,24.0
1979-07-13 11:58:20.230 ,2,0,0.,24.0,0.,24.0
1979-07-13 11:58:44.230 ,1,1,0.,24.0,0.,24.0
1979-07-13 11:59:08.230 ,1,0,0.,24.0,0.,24.0
1979-07-13 11:59:32.230 ,0,1,0.,24.0,0.,24.0
1979-07-13 11:59:56.230 ,0,0,0.,24.0,0.,24.0
1979-07-13 12:00:20.230 ,0,1,0.,24.0,0.,24.0
